Location: Cherry Springs State Park
(41.6616°N, 77.8240°W)
Time: 13:03:03
(UTC-04:00)

Amateur Radio Satellites - All Passes

Search period start: 31 October 2014 12:33
Search period end: 01 November 2014 12:33
Location: Cherry Springs State Park, 41.6616°N, 77.8240°W

Satellite Date Start Highest point End Downlink Frequencies (MHz)
Time Altitude Azimuth
KITSAT 1 31 Oct 12:37:54 12:45:38 48° 310° (NW) 12:53:25 435.175 FM
Oscar 19 31 Oct 12:43:31 12:47:13 20° 63° (ENE) 12:50:54 437.125 CW, 437.150 USB
JAS-1B 31 Oct 12:44:30 12:48:41 22° 61° (ENE) 12:52:55 435.800 - 435.900 CW/SSB
Sapphire 31 Oct 12:54:27 12:59:26 38° 249° (WSW) 13:04:24 437.095 MHz 1200 baud AX-25 AFSK
UOSAT-12 31 Oct 12:57:27 13:01:47 41° 116° (ESE) 13:06:11 437.025 FM, 437.400 FM
PCSat 31 Oct 13:16:46 13:20:56 23° 253° (WSW) 13:25:05 145.825 MHz
AO-27 31 Oct 13:19:44 13:23:20 19° 62° (ENE) 13:26:56 436.795 MHz FM
Oscar 16 31 Oct 13:28:58 13:33:57 53° 71° (ENE) 13:38:57 437.025 USB, Beacon 2401.1428
Saudisat 1A 31 Oct 13:33:22 13:35:59 15° 39° (NE) 13:38:35 436.775 MHz
Gurwin Techsat 1B 31 Oct 13:35:47 13:38:32 14° 59° (ENE) 13:41:17 435.225 FM
TMSAT-1 31 Oct 13:43:00 13:45:03 12° 58° (ENE) 13:47:06 436.925 FM
ISS 31 Oct 13:55:57 13:57:56 15° 359° (N) 13:59:56 145.800 FM
SO-50 31 Oct 13:57:37 13:59:02 11° 327° (NNW) 14:00:27 436.795 FM
Uribyol 2 31 Oct 14:01:49 14:06:47 46° 70° (ENE) 14:11:47 436.500 FM
AO-Echo 31 Oct 14:04:24 14:09:17 58° 72° (ENE) 14:14:21 ?
ITAMSAT 1 31 Oct 14:09:41 14:14:43 51° 71° (ENE) 14:19:48 435.822 SSB
AO-7 31 Oct 14:09:50 14:13:40 14° 45° (NE) 14:17:30 29.400 - 29.500 MHz
Oscar 19 31 Oct 14:21:10 14:26:10 52° 260° (W) 14:31:11 437.125 CW, 437.150 USB
JAS-1B 31 Oct 14:33:26 14:39:01 51° 260° (W) 14:44:35 435.800 - 435.900 CW/SSB
UOSAT-12 31 Oct 14:38:04 14:42:03 27° 315° (NW) 14:46:06 437.025 FM, 437.400 FM
KITSAT 1 31 Oct 14:38:37 14:43:20 16° 336° (NNW) 14:48:05 435.175 FM
AO-27 31 Oct 14:57:15 15:02:22 58° 259° (W) 15:07:33 436.795 MHz FM
Oscar 16 31 Oct 15:10:04 15:13:37 19° 268° (W) 15:17:10 437.025 USB, Beacon 2401.1428
Saudisat 1A 31 Oct 15:11:41 15:16:08 83° 238° (WSW) 15:20:32 436.775 MHz
Gurwin Techsat 1B 31 Oct 15:12:29 15:17:47 81° 257° (WSW) 15:23:08 435.225 FM
TMSAT-1 31 Oct 15:18:50 15:24:08 87° 75° (ENE) 15:29:29 436.925 FM
ISS 31 Oct 15:32:46 15:35:31 23° 20° (NNE) 15:38:17 145.800 FM
Uribyol 2 31 Oct 15:42:28 15:46:28 22° 267° (W) 15:50:29 436.500 FM
AO-Echo 31 Oct 15:45:17 15:48:28 17° 270° (W) 15:51:42 ?
ITAMSAT 1 31 Oct 15:50:45 15:54:30 20° 267° (W) 15:58:16 435.822 SSB
Uosat F 31 Oct 15:56:34 16:00:53 30° 66° (ENE) 16:05:14 435.120 FM
AO-7 31 Oct 15:56:42 16:04:45 60° 66° (ENE) 16:12:50 29.400 - 29.500 MHz
KITSAT 1 31 Oct 16:40:26 16:43:00 12° 7° (N) 16:45:34 435.175 FM
JAS-2 31 Oct 16:52:53 16:58:33 34° 63° (ENE) 17:04:50 435.800 - 435.900 CW/SSB, 435.910 FM
TMSAT-1 31 Oct 17:03:07 17:04:44 11° 272° (W) 17:06:20 436.925 FM
Hamsat 31 Oct 17:06:42 17:09:24 17° 66° (ENE) 17:12:07 145.90 MHz
ISS 31 Oct 17:09:09 17:12:29 71° 218° (SW) 17:15:48 145.800 FM
Uosat F 31 Oct 17:35:04 17:39:34 33° 263° (W) 17:44:07 435.120 FM
AO-7 31 Oct 17:50:51 17:57:55 31° 264° (W) 18:05:03 29.400 - 29.500 MHz
OPAL 31 Oct 18:03:50 18:08:20 34° 99° (E) 18:12:48 ?
KITSAT 1 31 Oct 18:35:28 18:41:58 26° 37° (NE) 18:48:25 435.175 FM
JAS-2 31 Oct 18:37:25 18:43:22 44° 264° (W) 18:50:06 435.800 - 435.900 CW/SSB, 435.910 FM
Hamsat 31 Oct 18:41:04 18:45:02 41° 262° (W) 18:49:00 145.90 MHz
SO-50 31 Oct 19:04:25 19:08:06 21° 42° (NE) 19:11:47 436.795 FM
SO-67 31 Oct 19:24:03 19:27:28 75° 77° (ENE) 19:30:55 435.3500 MHz FM
OPAL 31 Oct 19:42:54 19:47:06 28° 296° (WNW) 19:51:17 ?
RS-15 31 Oct 19:43:18 19:50:16 19° 99° (E) 19:57:09 29.354 - 29.394 USB, Beacon 29.352 USB
STRAND 1 31 Oct 20:00:07 20:05:15 67° 102° (ESE) 20:10:21 ?
HO-68 31 Oct 20:04:43 20:10:47 31° 60° (ENE) 20:16:53 435.675 MHz FM
AO-40 31 Oct 20:07:37 22:20:51 20° 114° (ESE) 23:29:59 Beacon 2401.320
KITSAT 1 31 Oct 20:30:22 20:38:30 88° 60° (ENE) 20:46:35 435.175 FM
SO-50 31 Oct 20:44:15 20:49:04 63° 241° (WSW) 20:53:53 436.795 FM
UKube-1 31 Oct 20:50:12 20:52:42 15° 63° (ENE) 20:55:12 145.840 MHz, 145.915 MHz
Oscar 10/S400 31 Oct 20:56:18 21:34:26 50° 202° (SSW) 05:34:40 145.825 - 145.975 CW/USB, Beacon 145.810 USB
Oscar 11 31 Oct 21:23:28 21:27:12 29° 69° (ENE) 21:30:56 145.825 FM, Beacon 2401.500 USB
UOSAT-12 31 Oct 21:26:44 21:31:10 39° 50° (NE) 21:35:32 437.025 FM, 437.400 FM
STRAND 1 31 Oct 21:40:45 21:43:52 16° 299° (WNW) 21:46:59 ?
FUNcube-1 31 Oct 21:41:26 21:44:48 21° 67° (ENE) 21:48:07 145.950 - 145.970 MHz USB
MaSat-1 31 Oct 21:49:18 21:52:28 24° 109° (ESE) 21:55:24 437.345 MHz
RS-15 31 Oct 21:49:50 22:00:50 84° 120° (ESE) 22:11:49 29.354 - 29.394 USB, Beacon 29.352 USB
HO-68 31 Oct 21:51:09 21:58:07 55° 259° (WSW) 22:05:10 435.675 MHz FM
UKube-1 31 Oct 22:24:10 22:28:26 54° 259° (W) 22:32:44 145.840 MHz, 145.915 MHz
KITSAT 1 31 Oct 22:27:36 22:32:49 19° 258° (WSW) 22:38:03 435.175 FM
ZACube-1 31 Oct 22:33:31 22:38:03 74° 76° (ENE) 22:42:30 437.345 MHz
Oscar 11 31 Oct 22:59:50 23:03:21 24° 265° (W) 23:06:54 145.825 FM, Beacon 2401.500 USB
UOSAT-12 31 Oct 23:07:15 23:11:08 26° 247° (WSW) 23:14:58 437.025 FM, 437.400 FM
FUNcube-1 31 Oct 23:16:42 23:20:56 38° 262° (W) 23:25:06 145.950 - 145.970 MHz USB
MaSat-1 31 Oct 23:24:37 23:27:46 24° 302° (WNW) 23:30:41 437.345 MHz
RS-15 01 Nov 00:04:53 00:14:31 34° 326° (NW) 00:24:17 29.354 - 29.394 USB, Beacon 29.352 USB
ZACube-1 01 Nov 00:14:08 00:14:53 10° 271° (W) 00:15:38 437.345 MHz
Oscar 16 01 Nov 01:41:28 01:44:57 18° 92° (E) 01:48:24 437.025 USB, Beacon 2401.1428
Sapphire 01 Nov 01:53:45 01:58:12 27° 108° (ESE) 02:02:41 437.095 MHz 1200 baud AX-25 AFSK
AO-Echo 01 Nov 02:12:18 02:16:07 20° 92° (E) 02:19:54 ?
JAS-1B 01 Nov 02:14:30 02:21:25 44° 99° (E) 02:29:31 435.800 - 435.900 CW/SSB
PCSat 01 Nov 02:14:33 02:19:39 44° 112° (ESE) 02:24:47 145.825 MHz
Uribyol 2 01 Nov 02:15:39 02:18:46 16° 91° (E) 02:21:52 436.500 FM
ITAMSAT 1 01 Nov 02:23:27 02:26:57 18° 92° (E) 02:30:24 435.822 SSB
RS-15 01 Nov 02:23:49 02:31:34 21° 1° (N) 02:39:27 29.354 - 29.394 USB, Beacon 29.352 USB
Oscar 19 01 Nov 02:32:23 02:37:24 54° 100° (E) 02:42:25 437.125 CW, 437.150 USB
AO-27 01 Nov 03:10:04 03:15:09 50° 100° (E) 03:20:11 436.795 MHz FM
Oscar 16 01 Nov 03:19:37 03:24:37 54° 288° (WNW) 03:29:35 437.025 USB, Beacon 2401.1428
Gurwin Techsat 1B 01 Nov 03:28:42 03:33:42 40° 98° (E) 03:38:39 435.225 FM
TMSAT-1 01 Nov 03:34:49 03:39:37 34° 96° (E) 03:44:23 436.925 FM
Sapphire 01 Nov 03:36:13 03:41:22 44° 306° (NW) 03:46:34 437.095 MHz 1200 baud AX-25 AFSK
AO-Echo 01 Nov 03:50:00 03:55:11 53° 288° (WNW) 04:00:17 ?
Uribyol 2 01 Nov 03:53:32 03:58:40 63° 287° (WNW) 04:03:46 436.500 FM
PCSat 01 Nov 03:58:32 04:03:13 29° 311° (NW) 04:07:56 145.825 MHz
AO-7 01 Nov 03:59:44 04:04:52 17° 90° (E) 04:09:59 29.400 - 29.500 MHz
ITAMSAT 1 01 Nov 04:01:40 04:06:47 56° 288° (WNW) 04:11:52 435.822 SSB
JAS-1B 01 Nov 04:05:25 04:11:54 40° 293° (WNW) 04:19:31 435.800 - 435.900 CW/SSB
Oscar 19 01 Nov 04:12:45 04:16:20 20° 297° (WNW) 04:19:54 437.125 CW, 437.150 USB
RS-15 01 Nov 04:38:34 04:48:32 36° 35° (NE) 04:58:48 29.354 - 29.394 USB, Beacon 29.352 USB
AO-27 01 Nov 04:50:24 04:54:18 22° 297° (WNW) 04:58:11 436.795 MHz FM
Gurwin Techsat 1B 01 Nov 05:09:04 05:13:27 27° 295° (WNW) 05:17:50 435.225 FM
TMSAT-1 01 Nov 05:14:50 05:19:27 31° 293° (WNW) 05:24:03 436.925 FM
OPAL 01 Nov 05:18:45 05:23:48 65° 71° (ENE) 05:28:48 ?
Saudisat 1A 01 Nov 05:18:56 05:22:25 24° 113° (ESE) 05:25:55 436.775 MHz
STRAND 1 01 Nov 05:40:30 05:42:52 13° 59° (ENE) 05:45:15 ?
Uosat F 01 Nov 05:41:51 05:46:55 75° 103° (ESE) 05:51:56 435.120 FM
JAS-2 01 Nov 05:46:05 05:53:05 34° 93° (E) 05:59:48 435.800 - 435.900 CW/SSB, 435.910 FM
AO-7 01 Nov 05:50:19 05:58:42 87° 108° (ESE) 06:07:04 29.400 - 29.500 MHz
Hamsat 01 Nov 06:26:19 06:30:06 31° 96° (E) 06:33:54 145.90 MHz
PANSAT 01 Nov 06:28:19 06:29:23 11° 185° (S) 06:30:28 not established
RS-15 01 Nov 06:50:57 07:02:10 82° 241° (WSW) 07:13:52 29.354 - 29.394 USB, Beacon 29.352 USB
Saudisat 1A 01 Nov 06:57:40 07:01:46 38° 310° (NW) 07:05:54 436.775 MHz
OPAL 01 Nov 07:00:13 07:03:05 15° 267° (W) 07:05:57 ?
STRAND 1 01 Nov 07:16:11 07:21:20 84° 256° (WSW) 07:26:32 ?
Uosat F 01 Nov 07:22:24 07:25:04 15° 300° (WNW) 07:27:44 435.120 FM
JAS-2 01 Nov 07:30:41 07:38:17 54° 291° (WNW) 07:45:38 435.800 - 435.900 CW/SSB, 435.910 FM
MaSat-1 01 Nov 07:32:57 07:35:14 31° 59° (ENE) 07:37:23 437.345 MHz
AO-7 01 Nov 07:44:26 07:50:29 23° 308° (NW) 07:56:33 29.400 - 29.500 MHz
Hamsat 01 Nov 08:02:35 08:05:52 22° 292° (WNW) 08:09:10 145.90 MHz
SO-67 01 Nov 08:19:45 08:23:12 87° 102° (ESE) 08:26:39 435.3500 MHz FM
RS-15 01 Nov 09:05:39 09:12:49 20° 261° (W) 09:20:11 29.354 - 29.394 USB, Beacon 29.352 USB
HO-68 01 Nov 09:18:55 09:25:03 30° 95° (E) 09:31:08 435.675 MHz FM
JAS-2 01 Nov 09:18:56 09:21:34 12° 311° (NW) 09:24:12 435.800 - 435.900 CW/SSB, 435.910 FM
ISS 01 Nov 09:51:24 09:54:24 32° 137° (SE) 09:57:25 145.800 FM
UKube-1 01 Nov 10:12:31 10:16:06 24° 95° (E) 10:19:39 145.840 MHz, 145.915 MHz
ZACube-1 01 Nov 10:24:25 10:26:23 13° 91° (E) 10:28:20 437.345 MHz
Sapphire 01 Nov 10:40:50 10:45:22 26° 47° (NE) 10:49:51 437.095 MHz 1200 baud AX-25 AFSK
Oscar 11 01 Nov 10:46:11 10:50:27 57° 100° (E) 10:54:41 145.825 FM, Beacon 2401.500 USB
KITSAT 1 01 Nov 10:58:20 11:06:14 62° 115° (ESE) 11:14:09 435.175 FM
SO-50 01 Nov 10:59:26 11:03:37 40° 116° (ESE) 11:07:55 436.795 FM
PCSat 01 Nov 11:02:07 11:07:12 39° 52° (NE) 11:12:14 145.825 MHz
FUNcube-1 01 Nov 11:05:29 11:09:24 37° 98° (E) 11:13:15 145.950 - 145.970 MHz USB
HO-68 01 Nov 11:06:04 11:13:02 54° 293° (WNW) 11:19:57 435.675 MHz FM
ISS 01 Nov 11:27:59 11:31:04 34° 334° (NNW) 11:34:10 145.800 FM
UKube-1 01 Nov 11:48:27 11:52:16 30° 292° (WNW) 11:56:05 145.840 MHz, 145.915 MHz
ZACube-1 01 Nov 11:59:02 12:03:06 50° 287° (WNW) 12:07:07 437.345 MHz
Oscar 19 01 Nov 12:14:54 12:16:04 11° 57° (ENE) 12:17:14 437.125 CW, 437.150 USB
Oscar 11 01 Nov 12:23:57 12:26:09 14° 297° (WNW) 12:28:20 145.825 FM, Beacon 2401.500 USB
